Overview Statistics Trail Chart Weather Telemetry Raw packets
 

This is the latest recevied weather packets stored in our database for station/object KB4RFE. If no packets are shown the sender has not sent any weather packets the latest 10 day(s).

<< 107 108 109 110 111 112 113 >>
Time Temp. Humidity Pressure Rain* Wind** Luminosity Snow
1787819046 23.33° C 97% 1018.4 hPa 0.51 mm - 0 W/m² -
1787818743 23.33° C 97% 1018.5 hPa 1.78 mm - 0 W/m² -
1787818440 23.33° C 97% 1018.4 hPa 2.29 mm - 0 W/m² -
1787818136 23.33° C 97% 1018.6 hPa 4.32 mm - 0 W/m² -
1787817835 23.33° C 97% 1018.7 hPa 5.33 mm - 0 W/m² -
1787817531 23.33° C 97% 1018.6 hPa 3.56 mm - 0 W/m² -
1787817227 22.78° C 97% 1018.9 hPa 1.27 mm - 0 W/m² -
1787816925 22.78° C 96% 1018.7 hPa 0.51 mm - 0 W/m² -
1787816621 22.78° C 96% 1019 hPa 1.78 mm - 0 W/m² -
1787816321 22.78° C 96% 1018.7 hPa 3.05 mm - 0 W/m² -
1787816017 22.78° C 96% 1018.6 hPa 4.83 mm - 0 W/m² -
1787815712 22.78° C 96% 1018.7 hPa 5.33 mm - 0 W/m² -
1787815408 22.78° C 96% 1018.6 hPa 17.53 mm - 0 W/m² -
1787815104 22.78° C 95% 1018.7 hPa 43.69 mm - 0 W/m² -
1787814799 22.78° C 95% 1019.1 hPa 67.82 mm - 0 W/m² -
1787814499 22.78° C 94% 1019.5 hPa 82.8 mm - 0 W/m² -
1787814193 22.78° C 92% 1019.3 hPa 73.91 mm - 0 W/m² -
1787813888 23.89° C 90% 1019.3 hPa 32.51 mm - 0 W/m² -
1787813584 25° C 90% 1019.1 hPa 0.51 mm - 0 W/m² -
1787813279 25° C 89% 1019 hPa 0.51 mm - 0 W/m² -
1787812975 25° C 88% 1018.7 hPa 0 mm - 0 W/m² -
1787812670 25° C 89% 1019.1 hPa 0 mm - 0 W/m² -
1787812366 25° C 89% 1019.1 hPa 0 mm - 0 W/m² -
1787812066 25° C 88% 1019.1 hPa 0 mm - 0 W/m² -
1787811761 25° C 87% 1018.7 hPa 0 mm - 0 W/m² -

* Rain latest hour (hover to see other rain measurements)
** Current wind speed in m/s (hover to see current wind gust speed)